TimeCST,TemperatureF,Dew PointF,Humidity,Sea Level PressureIn,VisibilityMPH,Wind Direction,Wind SpeedMPH,Gust SpeedMPH,PrecipitationIn,Events,Conditions,WindDirDegrees,DateUTC
12:53 AM,41.0,27.0,57,30.17,10.0,SSW,9.2,-,N/A,,Clear,210,2013-02-18 06:53:00
1:53 AM,39.0,28.0,65,30.17,10.0,SSW,8.1,-,N/A,,Clear,200,2013-02-18 07:53:00
2:53 AM,39.0,28.9,67,30.17,10.0,SSW,8.1,-,N/A,,Clear,210,2013-02-18 08:53:00
3:53 AM,37.9,30.0,73,30.17,10.0,SSW,9.2,-,N/A,,Clear,200,2013-02-18 09:53:00
4:53 AM,37.9,30.9,76,30.19,10.0,SSW,8.1,-,N/A,,Clear,200,2013-02-18 10:53:00
5:53 AM,37.9,32.0,79,30.19,10.0,SSW,10.4,-,N/A,,Clear,200,2013-02-18 11:53:00
6:53 AM,39.0,32.0,76,30.19,10.0,South,8.1,-,N/A,,Clear,190,2013-02-18 12:53:00
7:53 AM,42.1,34.0,73,30.20,10.0,South,10.4,-,N/A,,Clear,190,2013-02-18 13:53:00
8:53 AM,48.0,36.0,63,30.20,10.0,SSW,15.0,-,N/A,,Clear,200,2013-02-18 14:53:00
9:53 AM,52.0,39.0,61,30.18,10.0,SSW,16.1,-,N/A,,Clear,210,2013-02-18 15:53:00
10:53 AM,55.9,41.0,57,30.17,10.0,SW,21.9,28.8,N/A,,Clear,230,2013-02-18 16:53:00
11:53 AM,57.0,41.0,55,30.12,10.0,SW,17.3,26.5,N/A,,Scattered Clouds,220,2013-02-18 17:53:00
12:53 PM,59.0,41.0,51,30.06,10.0,SSW,24.2,32.2,N/A,,Overcast,200,2013-02-18 18:53:00
1:53 PM,60.1,39.9,47,30.01,10.0,South,24.2,35.7,N/A,,Overcast,190,2013-02-18 19:53:00
2:53 PM,60.1,39.9,47,29.99,10.0,SSW,21.9,33.4,N/A,,Overcast,200,2013-02-18 20:53:00
3:53 PM,61.0,39.9,46,29.95,10.0,SSW,26.5,35.7,N/A,,Mostly Cloudy,200,2013-02-18 21:53:00
4:53 PM,60.1,39.9,47,29.92,10.0,South,20.7,32.2,N/A,,Overcast,190,2013-02-18 22:53:00
5:53 PM,60.1,41.0,49,29.90,10.0,South,20.7,31.1,N/A,,Overcast,190,2013-02-18 23:53:00
6:53 PM,59.0,39.9,49,29.89,10.0,SSW,20.7,35.7,N/A,,Overcast,200,2013-02-19 00:53:00
7:53 PM,55.9,43.0,62,29.89,10.0,SSW,26.5,40.3,0.00,Rain,Light Rain,200,2013-02-19 01:53:00
8:53 PM,54.0,45.0,72,29.87,10.0,SSW,13.8,23.0,0.02,Rain,Light Rain,200,2013-02-19 02:53:00
9:53 PM,52.0,48.0,86,29.92,4.0,SW,12.7,19.6,0.12,Rain,Heavy Rain,220,2013-02-19 03:53:00
10:22 PM,51.8,48.2,88,29.95,7.0,SW,11.5,-,0.12,Rain,Rain,230,2013-02-19 04:22:00
10:33 PM,51.8,48.2,88,29.96,8.0,SW,10.4,-,0.15,Rain,Light Rain,230,2013-02-19 04:33:00
10:46 PM,51.8,48.2,88,29.96,7.0,SW,9.2,-,0.16,Rain,Rain,220,2013-02-19 04:46:00
10:53 PM,51.1,48.9,92,29.96,10.0,SW,11.5,-,0.16,Rain,Light Rain,220,2013-02-19 04:53:00
11:02 PM,51.8,48.2,88,29.95,10.0,SW,13.8,-,0.01,,Overcast,220,2013-02-19 05:02:00
11:53 PM,51.1,48.9,92,29.94,10.0,SSW,9.2,-,0.04,Rain,Light Rain,200,2013-02-19 05:53:00